Year,Month,Day,Hour,Minute,Value (Times are PST for windspeed in km/hr)
2019,04,26,00,00,4.80
2019,04,26,00,01,10.60
2019,04,26,00,02,7.50
2019,04,26,00,03,4.10
2019,04,26,00,04,4.60
2019,04,26,00,05,4.00
2019,04,26,00,06,4.90
2019,04,26,00,07,4.70
2019,04,26,00,08,6.10
2019,04,26,00,09,7.80
2019,04,26,00,10,6.40
2019,04,26,00,11,7.80
2019,04,26,00,12,6.90
2019,04,26,00,13,7.60
2019,04,26,00,14,11.00
2019,04,26,00,15,9.70
2019,04,26,00,16,6.20
2019,04,26,00,17,7.90
2019,04,26,00,18,4.70
2019,04,26,00,19,13.20
2019,04,26,00,20,6.80
2019,04,26,00,21,7.90
2019,04,26,00,22,7.30
2019,04,26,00,23,3.90
2019,04,26,00,24,3.40
2019,04,26,00,25,11.00
2019,04,26,00,26,4.50
2019,04,26,00,27,2.60
2019,04,26,00,28,3.20
2019,04,26,00,29,2.10
2019,04,26,00,30,7.90
2019,04,26,00,31,5.50
2019,04,26,00,32,6.30
2019,04,26,00,33,6.00
2019,04,26,00,34,9.20
2019,04,26,00,35,6.60
2019,04,26,00,36,7.90
2019,04,26,00,37,4.60
2019,04,26,00,38,8.60
2019,04,26,00,39,6.40
2019,04,26,00,40,8.30
2019,04,26,00,41,3.20
2019,04,26,00,42,3.80
2019,04,26,00,43,5.40
2019,04,26,00,44,9.00
2019,04,26,00,45,9.50
2019,04,26,00,46,7.00
2019,04,26,00,47,12.80
2019,04,26,00,48,11.10
2019,04,26,00,49,8.10
2019,04,26,00,50,11.10
2019,04,26,00,51,12.00
2019,04,26,00,52,7.20
2019,04,26,00,53,10.00
2019,04,26,00,54,8.20
2019,04,26,00,55,13.80
2019,04,26,00,56,9.30
2019,04,26,00,57,6.30
2019,04,26,00,58,7.50
2019,04,26,00,59,6.90
2019,04,26,01,00,11.30
2019,04,26,01,01,6.80
2019,04,26,01,02,4.50
2019,04,26,01,03,8.80
2019,04,26,01,04,4.40
2019,04,26,01,05,4.90
2019,04,26,01,06,10.90
2019,04,26,01,07,9.90
2019,04,26,01,08,7.10
2019,04,26,01,09,5.90
2019,04,26,01,10,3.70
2019,04,26,01,11,5.80
2019,04,26,01,12,6.90
2019,04,26,01,13,4.40
2019,04,26,01,14,4.50
2019,04,26,01,15,5.60
2019,04,26,01,16,3.70
2019,04,26,01,17,7.20
2019,04,26,01,18,8.60
2019,04,26,01,19,6.20
2019,04,26,01,20,5.70
2019,04,26,01,21,6.90
2019,04,26,01,22,7.50
2019,04,26,01,23,9.90
2019,04,26,01,24,12.20
2019,04,26,01,25,6.90
2019,04,26,01,26,7.00
2019,04,26,01,27,12.50
2019,04,26,01,28,8.30
2019,04,26,01,29,4.90
2019,04,26,01,30,4.50
2019,04,26,01,31,8.10
2019,04,26,01,32,10.60
2019,04,26,01,33,11.90
2019,04,26,01,34,9.50
2019,04,26,01,35,5.90
2019,04,26,01,36,7.40
2019,04,26,01,37,4.00
2019,04,26,01,38,3.60
2019,04,26,01,39,5.80
2019,04,26,01,40,6.40
2019,04,26,01,41,7.10
2019,04,26,01,42,11.90
2019,04,26,01,43,6.50
2019,04,26,01,44,12.10
2019,04,26,01,45,6.90
2019,04,26,01,46,11.10
2019,04,26,01,47,4.30
2019,04,26,01,48,6.10
2019,04,26,01,49,4.30
2019,04,26,01,50,5.40
2019,04,26,01,51,6.60
2019,04,26,01,52,4.00
2019,04,26,01,53,7.40
2019,04,26,01,54,6.90
2019,04,26,01,55,4.60
2019,04,26,01,56,4.10
2019,04,26,01,57,6.40
2019,04,26,01,58,10.30
2019,04,26,01,59,8.80
2019,04,26,02,00,7.90
2019,04,26,02,01,5.10
2019,04,26,02,02,3.70
2019,04,26,02,03,5.00
2019,04,26,02,04,5.40
2019,04,26,02,05,8.70
2019,04,26,02,06,10.40
2019,04,26,02,07,6.90
2019,04,26,02,08,4.80
2019,04,26,02,09,2.60
2019,04,26,02,10,6.20
2019,04,26,02,11,11.00
2019,04,26,02,12,10.00
2019,04,26,02,13,11.30
2019,04,26,02,14,7.00
2019,04,26,02,15,11.10
2019,04,26,02,16,10.60
2019,04,26,02,17,12.20
2019,04,26,02,18,8.00
2019,04,26,02,19,3.70
2019,04,26,02,20,3.30
2019,04,26,02,21,6.60
2019,04,26,02,22,8.20
2019,04,26,02,23,7.00
2019,04,26,02,24,9.80
2019,04,26,02,25,10.60
2019,04,26,02,26,8.70
2019,04,26,02,27,9.00
2019,04,26,02,28,7.10
2019,04,26,02,29,5.50
2019,04,26,02,30,5.70
2019,04,26,02,31,10.00
2019,04,26,02,32,11.50
2019,04,26,02,33,12.10
2019,04,26,02,34,9.80
2019,04,26,02,35,4.60
2019,04,26,02,36,10.50
2019,04,26,02,37,6.60
2019,04,26,02,38,11.00
2019,04,26,02,39,7.90
2019,04,26,02,40,7.30
2019,04,26,02,41,8.20
2019,04,26,02,42,8.30
2019,04,26,02,43,9.10
2019,04,26,02,44,7.70
2019,04,26,02,45,8.40
2019,04,26,02,46,5.30
2019,04,26,02,47,4.90
2019,04,26,02,48,11.30
2019,04,26,02,49,11.00
2019,04,26,02,50,11.80
2019,04,26,02,51,9.20
2019,04,26,02,52,5.60
2019,04,26,02,53,12.20
2019,04,26,02,54,8.40
2019,04,26,02,55,6.60
2019,04,26,02,56,7.80
2019,04,26,02,57,7.30
2019,04,26,02,58,7.90
2019,04,26,02,59,6.40
2019,04,26,03,00,9.40
2019,04,26,03,01,6.70
2019,04,26,03,02,5.90
2019,04,26,03,03,7.00
2019,04,26,03,04,9.00
2019,04,26,03,05,5.70
2019,04,26,03,06,9.40
2019,04,26,03,07,6.70
2019,04,26,03,08,8.80
2019,04,26,03,09,6.10
2019,04,26,03,10,10.70
2019,04,26,03,11,12.10
2019,04,26,03,12,5.40
2019,04,26,03,13,6.80
2019,04,26,03,14,6.70
2019,04,26,03,15,5.70
2019,04,26,03,16,13.30
2019,04,26,03,17,5.20
2019,04,26,03,18,7.70
2019,04,26,03,19,7.20
2019,04,26,03,20,8.50
2019,04,26,03,21,4.60
2019,04,26,03,22,6.90
2019,04,26,03,23,13.50
2019,04,26,03,24,10.30
2019,04,26,03,25,12.20
2019,04,26,03,26,12.70
2019,04,26,03,27,12.40
2019,04,26,03,28,8.90
2019,04,26,03,29,10.30
2019,04,26,03,30,8.30
2019,04,26,03,31,6.10
2019,04,26,03,32,10.00
2019,04,26,03,33,7.50
2019,04,26,03,34,8.40
2019,04,26,03,35,8.30
2019,04,26,03,36,7.70
2019,04,26,03,37,5.80
2019,04,26,03,38,6.20
2019,04,26,03,39,11.40
2019,04,26,03,40,9.40
2019,04,26,03,41,7.10
2019,04,26,03,42,9.60
2019,04,26,03,43,8.90
2019,04,26,03,44,5.20
2019,04,26,03,45,9.50
2019,04,26,03,46,7.30
2019,04,26,03,47,8.60
2019,04,26,03,48,3.30
2019,04,26,03,49,6.10
2019,04,26,03,50,9.70
2019,04,26,03,51,4.30
2019,04,26,03,52,5.10
2019,04,26,03,53,7.60
2019,04,26,03,54,3.70
2019,04,26,03,55,3.90
2019,04,26,03,56,11.60
2019,04,26,03,57,5.90
2019,04,26,03,58,7.90
2019,04,26,03,59,7.50
2019,04,26,04,00,5.40
2019,04,26,04,01,11.50
2019,04,26,04,02,9.50
2019,04,26,04,03,12.80
2019,04,26,04,04,11.40
2019,04,26,04,05,11.90
2019,04,26,04,06,8.80
2019,04,26,04,07,10.80
2019,04,26,04,08,10.20
2019,04,26,04,09,17.60
2019,04,26,04,10,9.60
2019,04,26,04,11,6.00
2019,04,26,04,12,6.90
2019,04,26,04,13,11.00
2019,04,26,04,14,9.00
2019,04,26,04,15,7.90
2019,04,26,04,16,10.30
2019,04,26,04,17,12.10
2019,04,26,04,18,16.30
2019,04,26,04,19,6.60
2019,04,26,04,20,5.90
2019,04,26,04,21,5.00
2019,04,26,04,22,3.90
2019,04,26,04,23,5.80
2019,04,26,04,24,7.50
2019,04,26,04,25,12.70
2019,04,26,04,26,13.60
2019,04,26,04,27,13.40
2019,04,26,04,28,5.40
2019,04,26,04,29,6.10
2019,04,26,04,30,7.30
2019,04,26,04,31,8.80
2019,04,26,04,32,10.60
2019,04,26,04,33,6.10
2019,04,26,04,34,5.30
2019,04,26,04,35,7.20
2019,04,26,04,36,9.10
2019,04,26,04,37,8.50
2019,04,26,04,38,12.70
2019,04,26,04,39,7.30
2019,04,26,04,40,7.40
2019,04,26,04,41,6.60
2019,04,26,04,42,9.50
2019,04,26,04,43,8.40
2019,04,26,04,44,5.10
2019,04,26,04,45,9.20
2019,04,26,04,46,6.40
2019,04,26,04,47,12.50
2019,04,26,04,48,10.90
2019,04,26,04,49,7.80
2019,04,26,04,50,10.10
2019,04,26,04,51,7.60
2019,04,26,04,52,15.20
2019,04,26,04,53,9.40
2019,04,26,04,54,10.00
2019,04,26,04,55,12.60
2019,04,26,04,56,11.60
2019,04,26,04,57,8.50
2019,04,26,04,58,7.90
2019,04,26,04,59,13.70
2019,04,26,05,00,14.10
2019,04,26,05,01,11.40
2019,04,26,05,02,10.30
2019,04,26,05,03,11.70
2019,04,26,05,04,18.30
2019,04,26,05,05,14.00
2019,04,26,05,06,11.30
2019,04,26,05,07,13.50
2019,04,26,05,08,9.50
2019,04,26,05,09,14.40
2019,04,26,05,10,10.60
2019,04,26,05,11,10.10
2019,04,26,05,12,9.20
2019,04,26,05,13,12.80
2019,04,26,05,14,13.20
2019,04,26,05,15,13.30
2019,04,26,05,16,15.50
2019,04,26,05,17,12.00
2019,04,26,05,18,12.90
2019,04,26,05,19,15.10
2019,04,26,05,20,10.60
2019,04,26,05,21,11.30
2019,04,26,05,22,11.40
2019,04,26,05,23,6.70
2019,04,26,05,24,9.80
2019,04,26,05,25,17.60
2019,04,26,05,26,13.40
2019,04,26,05,27,13.10
2019,04,26,05,28,8.00
2019,04,26,05,29,8.50
2019,04,26,05,30,13.40
2019,04,26,05,31,9.60
2019,04,26,05,32,9.20
2019,04,26,05,33,14.10
2019,04,26,05,34,8.70
2019,04,26,05,35,8.60
2019,04,26,05,36,8.10
2019,04,26,05,37,7.60
2019,04,26,05,38,13.10
2019,04,26,05,39,10.00
2019,04,26,05,40,11.20
2019,04,26,05,41,7.90
2019,04,26,05,42,11.80
2019,04,26,05,43,9.70
2019,04,26,05,44,10.20
2019,04,26,05,45,11.70
2019,04,26,05,46,12.10
2019,04,26,05,47,10.40
2019,04,26,05,48,8.80
2019,04,26,05,49,6.10
2019,04,26,05,50,4.20
2019,04,26,05,51,6.70
2019,04,26,05,52,9.90
2019,04,26,05,53,9.80
2019,04,26,05,54,8.80
2019,04,26,05,55,8.70
2019,04,26,05,56,8.80
2019,04,26,05,57,11.20
2019,04,26,05,58,10.80
2019,04,26,05,59,7.00
2019,04,26,06,00,12.80
2019,04,26,06,01,16.90
2019,04,26,06,02,8.00
2019,04,26,06,03,11.20
2019,04,26,06,04,8.50
2019,04,26,06,05,8.20
2019,04,26,06,06,12.20
2019,04,26,06,07,8.80
2019,04,26,06,08,4.70
2019,04,26,06,09,5.50
2019,04,26,06,10,8.00
2019,04,26,06,11,8.00
2019,04,26,06,12,10.40
2019,04,26,06,13,8.50
2019,04,26,06,14,6.60
2019,04,26,06,15,5.00
2019,04,26,06,16,7.50
2019,04,26,06,17,5.20
2019,04,26,06,18,4.90
2019,04,26,06,19,7.10
2019,04,26,06,20,8.20
2019,04,26,06,21,8.20
2019,04,26,06,22,7.00
2019,04,26,06,23,10.30
2019,04,26,06,24,5.10
2019,04,26,06,25,8.70
2019,04,26,06,26,9.80
2019,04,26,06,27,9.70
2019,04,26,06,28,12.20
2019,04,26,06,29,8.40
2019,04,26,06,30,6.10
2019,04,26,06,31,6.70
2019,04,26,06,32,9.40
2019,04,26,06,33,6.40
2019,04,26,06,34,5.50
2019,04,26,06,35,4.90
2019,04,26,06,36,8.20
2019,04,26,06,37,10.00
2019,04,26,06,38,6.60
2019,04,26,06,39,7.40
2019,04,26,06,40,9.40
2019,04,26,06,41,7.50
2019,04,26,06,42,9.40
2019,04,26,06,43,4.20
2019,04,26,06,44,11.80
2019,04,26,06,45,9.10
2019,04,26,06,46,13.60
2019,04,26,06,47,12.90
2019,04,26,06,48,7.40
2019,04,26,06,49,10.90
2019,04,26,06,50,9.10
2019,04,26,06,51,14.40
2019,04,26,06,52,8.20
2019,04,26,06,53,14.80
2019,04,26,06,54,13.40
2019,04,26,06,55,11.30
2019,04,26,06,56,10.10
2019,04,26,06,57,12.90
2019,04,26,06,58,8.80
2019,04,26,06,59,7.90
2019,04,26,07,00,10.80
2019,04,26,07,01,8.90
2019,04,26,07,02,9.50
2019,04,26,07,03,11.30
2019,04,26,07,04,12.30
2019,04,26,07,05,12.50
2019,04,26,07,06,9.30
2019,04,26,07,07,8.60
2019,04,26,07,08,5.30
2019,04,26,07,09,10.10
2019,04,26,07,10,9.20
2019,04,26,07,11,6.70
2019,04,26,07,12,9.50
2019,04,26,07,13,7.70
2019,04,26,07,14,14.20
2019,04,26,07,15,9.40
2019,04,26,07,16,7.90
2019,04,26,07,17,8.10
2019,04,26,07,18,12.60
2019,04,26,07,19,11.00
2019,04,26,07,20,8.20
2019,04,26,07,21,6.40
2019,04,26,07,22,8.70
2019,04,26,07,23,14.40
2019,04,26,07,24,15.40
2019,04,26,07,25,13.80
2019,04,26,07,26,9.40
2019,04,26,07,27,5.80
2019,04,26,07,28,7.60
2019,04,26,07,29,8.20
2019,04,26,07,30,12.00
2019,04,26,07,31,9.70
2019,04,26,07,32,12.30
2019,04,26,07,33,10.10
2019,04,26,07,34,11.10
2019,04,26,07,35,16.90
2019,04,26,07,36,11.50
2019,04,26,07,37,15.70
2019,04,26,07,38,10.10
2019,04,26,07,39,12.10
2019,04,26,07,40,10.40
2019,04,26,07,41,5.80
2019,04,26,07,42,9.30
2019,04,26,07,43,12.10
2019,04,26,07,44,11.50
2019,04,26,07,45,7.90
2019,04,26,07,46,5.90
2019,04,26,07,47,6.40
2019,04,26,07,48,9.40
2019,04,26,07,49,9.20
2019,04,26,07,50,9.80
2019,04,26,07,51,10.40
2019,04,26,07,52,15.90
2019,04,26,07,53,10.00
2019,04,26,07,54,8.60
2019,04,26,07,55,13.60
2019,04,26,07,56,9.30
2019,04,26,07,57,13.70
2019,04,26,07,58,10.60
2019,04,26,07,59,7.30
2019,04,26,08,00,9.80
2019,04,26,08,01,6.40
2019,04,26,08,02,5.90
2019,04,26,08,03,7.00
2019,04,26,08,04,8.20
2019,04,26,08,05,6.80
2019,04,26,08,06,6.10
2019,04,26,08,07,6.60
2019,04,26,08,08,7.00
2019,04,26,08,09,6.30
2019,04,26,08,10,6.20
2019,04,26,08,11,4.50
2019,04,26,08,12,13.00
2019,04,26,08,13,12.50
2019,04,26,08,14,7.90
2019,04,26,08,15,7.90
2019,04,26,08,16,4.10
2019,04,26,08,17,4.60
2019,04,26,08,18,7.60
2019,04,26,08,19,6.40
2019,04,26,08,20,4.30
2019,04,26,08,21,13.10
2019,04,26,08,22,10.90
2019,04,26,08,23,6.30
2019,04,26,08,24,9.80
2019,04,26,08,25,8.30
2019,04,26,08,26,5.10
2019,04,26,08,27,8.50
2019,04,26,08,28,6.10
2019,04,26,08,29,5.70
2019,04,26,08,30,6.60
2019,04,26,08,31,16.90
2019,04,26,08,32,5.20
2019,04,26,08,33,2.60
2019,04,26,08,34,3.60
2019,04,26,08,35,4.40
2019,04,26,08,36,4.00
2019,04,26,08,37,1.90
2019,04,26,08,38,1.80
2019,04,26,08,39,2.60
2019,04,26,08,40,2.00
2019,04,26,08,41,2.80
2019,04,26,08,42,5.10
2019,04,26,08,43,8.60
2019,04,26,08,44,11.90
2019,04,26,08,45,13.60
2019,04,26,08,46,14.50
2019,04,26,08,47,6.70
2019,04,26,08,48,2.50
2019,04,26,08,49,13.80
2019,04,26,08,50,14.10
2019,04,26,08,51,9.00
2019,04,26,08,52,13.20
2019,04,26,08,53,6.70
2019,04,26,08,54,2.80
2019,04,26,08,55,6.90
2019,04,26,08,56,7.20
2019,04,26,08,57,7.70
2019,04,26,08,58,3.60
2019,04,26,08,59,3.20
2019,04,26,09,00,6.70
2019,04,26,09,01,6.30
2019,04,26,09,02,6.80
2019,04,26,09,03,6.40
2019,04,26,09,04,8.10
2019,04,26,09,05,5.40
2019,04,26,09,06,5.80
2019,04,26,09,07,8.30
2019,04,26,09,08,4.40
2019,04,26,09,09,2.80
2019,04,26,09,10,4.50
2019,04,26,09,11,3.60
2019,04,26,09,12,6.90
2019,04,26,09,13,13.10
2019,04,26,09,14,15.00
2019,04,26,09,15,13.10
2019,04,26,09,16,6.40
2019,04,26,09,17,5.00
2019,04,26,09,18,7.20
2019,04,26,09,19,5.70
2019,04,26,09,20,4.90
2019,04,26,09,21,7.00
2019,04,26,09,22,3.60
2019,04,26,09,23,6.00
2019,04,26,09,24,5.30
2019,04,26,09,25,7.80
2019,04,26,09,26,9.60
2019,04,26,09,27,4.50
2019,04,26,09,28,4.90
2019,04,26,09,29,8.80
2019,04,26,09,30,7.70
2019,04,26,09,31,14.00
2019,04,26,09,32,9.40
2019,04,26,09,33,8.80
2019,04,26,09,34,9.20
2019,04,26,09,35,8.80
2019,04,26,09,36,13.50
2019,04,26,09,37,10.00
2019,04,26,09,38,13.00
2019,04,26,09,39,12.90
2019,04,26,09,40,15.00
2019,04,26,09,41,10.30
2019,04,26,09,42,15.70
2019,04,26,09,43,9.20
2019,04,26,09,44,4.30
2019,04,26,09,45,2.80
2019,04,26,09,46,3.40
2019,04,26,09,47,4.50
2019,04,26,09,48,3.70
2019,04,26,09,49,3.60
2019,04,26,09,50,5.80
2019,04,26,09,51,10.00
2019,04,26,09,52,5.40
2019,04,26,09,53,4.40
2019,04,26,09,54,4.50
2019,04,26,09,55,10.80
2019,04,26,09,56,6.20
2019,04,26,09,57,5.10
2019,04,26,09,58,4.10
2019,04,26,09,59,3.70
2019,04,26,10,00,3.60
2019,04,26,10,01,10.00
2019,04,26,10,02,14.70
2019,04,26,10,03,12.60
2019,04,26,10,04,12.60
2019,04,26,10,05,7.80
2019,04,26,10,06,10.70
2019,04,26,10,07,9.00
2019,04,26,10,08,9.40
2019,04,26,10,09,10.60
2019,04,26,10,10,5.80
2019,04,26,10,11,10.40
2019,04,26,10,12,6.10
2019,04,26,10,13,4.90
2019,04,26,10,14,5.10
2019,04,26,10,15,5.70
2019,04,26,10,16,5.20
2019,04,26,10,17,20.60
2019,04,26,10,18,9.10
2019,04,26,10,19,5.20
2019,04,26,10,20,9.20
2019,04,26,10,21,14.80
2019,04,26,10,22,16.50
2019,04,26,10,23,11.40
2019,04,26,10,24,7.90
2019,04,26,10,25,9.80
2019,04,26,10,26,10.30
2019,04,26,10,27,10.90
2019,04,26,10,28,9.70
2019,04,26,10,29,12.00
2019,04,26,10,30,10.50
2019,04,26,10,31,8.60
2019,04,26,10,32,10.80
2019,04,26,10,33,11.60
2019,04,26,10,34,5.40
2019,04,26,10,35,5.10
2019,04,26,10,36,5.70
2019,04,26,10,37,6.70
2019,04,26,10,38,5.70
2019,04,26,10,39,3.60
2019,04,26,10,40,6.60
2019,04,26,10,41,4.90
2019,04,26,10,42,3.90
2019,04,26,10,43,3.30
2019,04,26,10,44,6.70
2019,04,26,10,45,7.00
2019,04,26,10,46,2.60
2019,04,26,10,47,1.70
2019,04,26,10,48,3.60
2019,04,26,10,49,6.40
2019,04,26,10,50,4.20
2019,04,26,10,51,3.50
2019,04,26,10,52,4.70
2019,04,26,10,53,3.90
2019,04,26,10,54,4.90
2019,04,26,10,55,3.80
2019,04,26,10,56,7.60
2019,04,26,10,57,7.90
2019,04,26,10,58,5.90
2019,04,26,10,59,5.50
2019,04,26,11,00,5.20
2019,04,26,11,01,3.90
2019,04,26,11,02,5.00
2019,04,26,11,03,4.30
2019,04,26,11,04,4.30
2019,04,26,11,05,5.60
2019,04,26,11,06,5.50
2019,04,26,11,07,5.40
2019,04,26,11,08,4.60
2019,04,26,11,09,5.20
2019,04,26,11,10,4.50
2019,04,26,11,11,3.70
2019,04,26,11,12,3.00
2019,04,26,11,13,2.80
2019,04,26,11,14,2.30
2019,04,26,11,15,3.80
2019,04,26,11,16,6.70
2019,04,26,11,17,8.00
2019,04,26,11,18,8.50
2019,04,26,11,19,5.40
2019,04,26,11,20,7.80
2019,04,26,11,21,4.10
2019,04,26,11,22,2.70
2019,04,26,11,23,3.60
2019,04,26,11,24,4.60
2019,04,26,11,25,8.50
2019,04,26,11,26,1.80
2019,04,26,11,27,3.50
2019,04,26,11,28,7.30
2019,04,26,11,29,9.40
2019,04,26,11,30,9.80
2019,04,26,11,31,10.90
2019,04,26,11,32,5.10
2019,04,26,11,33,3.20
2019,04,26,11,34,6.40
2019,04,26,11,35,5.70
2019,04,26,11,36,6.30
2019,04,26,11,37,3.30
2019,04,26,11,38,3.30
2019,04,26,11,39,10.00
2019,04,26,11,40,6.70
2019,04,26,11,41,10.80
2019,04,26,11,42,9.60
2019,04,26,11,43,6.70
2019,04,26,11,44,6.10
2019,04,26,11,45,5.30
2019,04,26,11,46,9.80
2019,04,26,11,47,6.40
2019,04,26,11,48,4.60
2019,04,26,11,49,2.60
2019,04,26,11,50,7.80
2019,04,26,11,51,5.40
2019,04,26,11,52,4.10
2019,04,26,11,53,4.90
2019,04,26,11,54,6.90
2019,04,26,11,55,4.40
2019,04,26,11,56,4.20
2019,04,26,11,57,7.10
2019,04,26,11,58,4.60
2019,04,26,11,59,3.30
2019,04,26,12,00,3.50
2019,04,26,12,01,4.20
2019,04,26,12,02,3.60
2019,04,26,12,03,7.90
2019,04,26,12,04,6.70
2019,04,26,12,05,7.00
2019,04,26,12,06,3.90
2019,04,26,12,07,4.50
2019,04,26,12,08,4.60
2019,04,26,12,09,3.60
2019,04,26,12,10,2.80
2019,04,26,12,11,3.80
2019,04,26,12,12,4.40
2019,04,26,12,13,3.80
2019,04,26,12,14,7.40
2019,04,26,12,15,4.90
2019,04,26,12,16,5.10
2019,04,26,12,17,5.10
2019,04,26,12,18,4.50
2019,04,26,12,19,5.40
2019,04,26,12,20,4.30
2019,04,26,12,21,2.80
2019,04,26,12,22,2.90
2019,04,26,12,23,4.50
2019,04,26,12,24,4.00
2019,04,26,12,25,5.60
2019,04,26,12,26,4.80
2019,04,26,12,27,5.30
2019,04,26,12,28,5.20
2019,04,26,12,29,6.50
2019,04,26,12,30,5.40
2019,04,26,12,31,6.00
2019,04,26,12,32,6.20
2019,04,26,12,33,5.70
2019,04,26,12,34,4.90
2019,04,26,12,35,1.90
2019,04,26,12,36,5.10
2019,04,26,12,37,4.90
2019,04,26,12,38,8.30
2019,04,26,12,39,4.20
2019,04,26,12,40,4.80
2019,04,26,12,41,7.00
2019,04,26,12,42,7.30
2019,04,26,12,43,6.40
2019,04,26,12,44,9.50
2019,04,26,12,45,5.00
2019,04,26,12,46,6.00
2019,04,26,12,47,4.80
2019,04,26,12,48,4.60
2019,04,26,12,49,7.10
2019,04,26,12,50,8.20
2019,04,26,12,51,4.30
2019,04,26,12,52,4.80
2019,04,26,12,53,7.40
2019,04,26,12,54,8.40
2019,04,26,12,55,8.20
2019,04,26,12,56,9.00
2019,04,26,12,57,6.90
2019,04,26,12,58,7.00
2019,04,26,12,59,6.10
2019,04,26,13,00,9.30
2019,04,26,13,01,9.90
2019,04,26,13,02,10.20
2019,04,26,13,03,4.80
2019,04,26,13,04,6.30
2019,04,26,13,05,4.60
2019,04,26,13,06,5.00
2019,04,26,13,07,4.10
2019,04,26,13,08,3.50
2019,04,26,13,09,6.90
2019,04,26,13,10,7.90
2019,04,26,13,11,7.10
2019,04,26,13,12,9.10
2019,04,26,13,13,12.50
2019,04,26,13,14,6.30
2019,04,26,13,15,4.70
2019,04,26,13,16,9.40
2019,04,26,13,17,3.40
2019,04,26,13,18,7.40
2019,04,26,13,19,7.00
2019,04,26,13,20,10.90
2019,04,26,13,21,7.80
2019,04,26,13,22,6.30
2019,04,26,13,23,4.80
2019,04,26,13,24,3.20
2019,04,26,13,25,4.00
2019,04,26,13,26,4.00
2019,04,26,13,27,5.10
2019,04,26,13,28,5.10
2019,04,26,13,29,3.80
2019,04,26,13,30,5.10
2019,04,26,13,31,6.10
2019,04,26,13,32,6.10
2019,04,26,13,33,5.80
2019,04,26,13,34,2.60
2019,04,26,13,35,4.40
2019,04,26,13,36,6.60
2019,04,26,13,37,7.00
2019,04,26,13,38,8.00
2019,04,26,13,39,3.00
2019,04,26,13,40,3.30
2019,04,26,13,41,4.50
2019,04,26,13,42,8.20
2019,04,26,13,43,6.60
2019,04,26,13,44,9.20
2019,04,26,13,45,4.60
2019,04,26,13,46,5.50
2019,04,26,13,47,4.70
2019,04,26,13,48,3.90
2019,04,26,13,49,3.20
2019,04,26,13,50,5.90
2019,04,26,13,51,5.70
2019,04,26,13,52,4.10
2019,04,26,13,53,6.30
2019,04,26,13,54,3.20
2019,04,26,13,55,7.30
2019,04,26,13,56,5.50
2019,04,26,13,57,7.20
2019,04,26,13,58,9.10
2019,04,26,13,59,6.00
2019,04,26,14,00,7.60
2019,04,26,14,01,6.10
2019,04,26,14,02,6.10
2019,04,26,14,03,6.40
2019,04,26,14,04,5.20
2019,04,26,14,05,4.90
2019,04,26,14,06,3.80
2019,04,26,14,07,5.80
2019,04,26,14,08,5.40
2019,04,26,14,09,7.00
2019,04,26,14,10,5.70
2019,04,26,14,11,4.90
2019,04,26,14,12,7.50
2019,04,26,14,13,3.80
2019,04,26,14,14,7.20
2019,04,26,14,15,6.90
2019,04,26,14,16,7.90
2019,04,26,14,17,6.30
2019,04,26,14,18,2.90
2019,04,26,14,19,2.80
2019,04,26,14,20,7.00
2019,04,26,14,21,10.90
2019,04,26,14,22,8.20
2019,04,26,14,23,7.80
2019,04,26,14,24,5.60
2019,04,26,14,25,5.90
2019,04,26,14,26,7.90
2019,04,26,14,27,3.60
2019,04,26,14,28,4.20
2019,04,26,14,29,5.20
2019,04,26,14,30,7.50
2019,04,26,14,31,4.40
2019,04,26,14,32,4.50
2019,04,26,14,33,7.20
2019,04,26,14,34,3.90
2019,04,26,14,35,5.40
2019,04,26,14,36,4.70
2019,04,26,14,37,6.30
2019,04,26,14,38,5.80
2019,04,26,14,39,5.20
2019,04,26,14,40,4.30
2019,04,26,14,41,6.50
2019,04,26,14,42,4.10
2019,04,26,14,43,8.00
2019,04,26,14,44,5.20
2019,04,26,14,45,3.70
2019,04,26,14,46,7.10
2019,04,26,14,47,5.20
2019,04,26,14,48,13.40
2019,04,26,14,49,5.40
2019,04,26,14,50,4.40
2019,04,26,14,51,6.10
2019,04,26,14,52,4.60
2019,04,26,14,53,3.00
2019,04,26,14,54,3.60
2019,04,26,14,55,3.00
2019,04,26,14,56,5.00
2019,04,26,14,57,3.40
2019,04,26,14,58,4.60
2019,04,26,14,59,4.60
2019,04,26,15,00,2.40
2019,04,26,15,01,4.10
2019,04,26,15,02,3.00
2019,04,26,15,03,4.50
2019,04,26,15,04,4.10
2019,04,26,15,05,5.00
2019,04,26,15,06,3.70
2019,04,26,15,07,3.20
2019,04,26,15,08,4.80
2019,04,26,15,09,3.80
2019,04,26,15,10,4.80
2019,04,26,15,11,5.20
2019,04,26,15,12,4.80
2019,04,26,15,13,5.70
2019,04,26,15,14,6.10
2019,04,26,15,15,3.30
2019,04,26,15,16,3.70
2019,04,26,15,17,3.50
2019,04,26,15,18,3.80
2019,04,26,15,19,1.40
2019,04,26,15,20,5.60
2019,04,26,15,21,6.70
2019,04,26,15,22,5.40
2019,04,26,15,23,4.40
2019,04,26,15,24,2.70
2019,04,26,15,25,3.90
2019,04,26,15,26,5.80
2019,04,26,15,27,4.30
2019,04,26,15,28,3.50
2019,04,26,15,29,2.90
2019,04,26,15,30,2.70
2019,04,26,15,31,3.60
2019,04,26,15,32,3.80
2019,04,26,15,33,3.90
2019,04,26,15,34,2.90
2019,04,26,15,35,5.70
2019,04,26,15,36,6.30
2019,04,26,15,37,4.20
2019,04,26,15,38,6.60
2019,04,26,15,39,4.60
2019,04,26,15,40,1.90
2019,04,26,15,41,1.40
2019,04,26,15,42,1.30
2019,04,26,15,43,2.90
2019,04,26,15,44,3.20
2019,04,26,15,45,3.80
2019,04,26,15,46,5.00
2019,04,26,15,47,4.50
2019,04,26,15,48,3.70
2019,04,26,15,49,5.20
2019,04,26,15,50,6.30
2019,04,26,15,51,4.70
2019,04,26,15,52,5.20
2019,04,26,15,53,2.00
2019,04,26,15,54,2.90
2019,04,26,15,55,4.00
2019,04,26,15,56,2.50
2019,04,26,15,57,3.00
2019,04,26,15,58,3.50
2019,04,26,15,59,3.60
2019,04,26,16,00,2.20
2019,04,26,16,01,2.00
2019,04,26,16,02,2.10
2019,04,26,16,03,1.60
2019,04,26,16,04,1.00
2019,04,26,16,05,4.60
2019,04,26,16,06,4.10
2019,04,26,16,07,2.90
2019,04,26,16,08,2.70
2019,04,26,16,09,2.90
2019,04,26,16,10,3.70
2019,04,26,16,11,2.80
2019,04,26,16,12,4.20
2019,04,26,16,13,2.90
2019,04,26,16,14,3.10
2019,04,26,16,15,6.00
2019,04,26,16,16,4.60
2019,04,26,16,17,4.50
2019,04,26,16,18,2.00
2019,04,26,16,19,3.00
2019,04,26,16,20,4.00
2019,04,26,16,21,2.90
2019,04,26,16,22,4.20
2019,04,26,16,23,3.80
2019,04,26,16,24,6.00
2019,04,26,16,25,4.90
2019,04,26,16,26,3.60
2019,04,26,16,27,3.00
2019,04,26,16,28,1.70
2019,04,26,16,29,2.90
2019,04,26,16,30,1.40
2019,04,26,16,31,1.90
2019,04,26,16,32,2.70
2019,04,26,16,33,3.80
2019,04,26,16,34,3.70
2019,04,26,16,35,4.90
2019,04,26,16,36,7.20
2019,04,26,16,37,3.80
2019,04,26,16,38,5.20
2019,04,26,16,39,4.50
2019,04,26,16,40,4.20
2019,04,26,16,41,3.90
2019,04,26,16,42,3.30
2019,04,26,16,43,2.40
2019,04,26,16,44,1.60
2019,04,26,16,45,1.00
2019,04,26,16,46,1.60
2019,04,26,16,47,0.90
2019,04,26,16,48,2.10
2019,04,26,16,49,1.40
2019,04,26,16,50,2.80
2019,04,26,16,51,2.70
2019,04,26,16,52,3.60
2019,04,26,16,53,2.90
2019,04,26,16,54,4.20
2019,04,26,16,55,2.20
2019,04,26,16,56,1.40
2019,04,26,16,57,1.50
2019,04,26,16,58,1.40
2019,04,26,16,59,2.80
2019,04,26,17,00,1.90
2019,04,26,17,01,2.50
2019,04,26,17,02,3.00
2019,04,26,17,03,2.70
2019,04,26,17,04,1.70
2019,04,26,17,05,1.30
2019,04,26,17,06,1.50
2019,04,26,17,07,1.40
2019,04,26,17,08,0.50
2019,04,26,17,09,0.70
2019,04,26,17,10,1.20
2019,04,26,17,11,1.00
2019,04,26,17,12,2.00
2019,04,26,17,13,1.90
2019,04,26,17,14,0.30
2019,04,26,17,15,1.60
2019,04,26,17,16,2.40
2019,04,26,17,17,4.20
2019,04,26,17,18,3.80
2019,04,26,17,19,5.60
2019,04,26,17,20,5.80
2019,04,26,17,21,6.70
2019,04,26,17,22,8.40
2019,04,26,17,23,5.20
2019,04,26,17,24,4.50
2019,04,26,17,25,2.90
2019,04,26,17,26,5.10
2019,04,26,17,27,3.40
2019,04,26,17,28,3.50
2019,04,26,17,29,4.40
2019,04,26,17,30,5.00
2019,04,26,17,31,5.70
2019,04,26,17,32,5.50
2019,04,26,17,33,4.30
2019,04,26,17,34,4.20
2019,04,26,17,35,5.20
2019,04,26,17,36,4.20
2019,04,26,17,37,5.00
2019,04,26,17,38,2.60
2019,04,26,17,39,3.80
2019,04,26,17,40,3.30
2019,04,26,17,41,3.90
2019,04,26,17,42,1.10
2019,04,26,17,43,3.60
2019,04,26,17,44,2.70
2019,04,26,17,45,1.40
2019,04,26,17,46,2.20
2019,04,26,17,47,1.00
2019,04,26,17,48,0.70
2019,04,26,17,49,1.90
2019,04,26,17,50,1.70
2019,04,26,17,51,2.20
2019,04,26,17,52,3.10
2019,04,26,17,53,3.80
2019,04,26,17,54,5.20
2019,04,26,17,55,1.50
2019,04,26,17,56,1.30
2019,04,26,17,57,1.30